When you browse on this site, cookies collect data to enhance your experience and personalize the content and advertising you see.
Visit our Privacy Policy to learn more. By continuing to use the site, you agree to this use of cookies and data.
  • In Schweiz
  • Länderverzeichnis
  • Für 7 Tage
  • Wassertemperatur
  • Wetterkarte
  • Widgets
  • user-avatar
    Anmelden

    Stündliche Wetter Hoyerswerda

    Heute, 29 Mai, Freitag

    Zeit Temperatur Niederschläge Wind Luftdruck Luftfeuchtigkeit
    00:00 +9°C° 0 mm 2 m/S 760 mmHg 92%
    01:00 +8°C° 0 mm 2 m/S 760 mmHg 93%
    02:00 +7°C° 0 mm 2 m/S 760 mmHg 93%
    03:00 +7°C° 0 mm 2 m/S 760 mmHg 93%
    04:00 +7°C° 0 mm 1 m/S 760 mmHg 93%
    05:00 +8°C° 0 mm 2 m/S 761 mmHg 85%
    06:00 +9°C° 0 mm 2 m/S 761 mmHg 76%
    07:00 +12°C° 0 mm 2 m/S 761 mmHg 67%
    08:00 +12°C° 0 mm 3 m/S 761 mmHg 60%
    09:00 +14°C° 0 mm 4 m/S 761 mmHg 53%
    10:00 +17°C° 0 mm 4 m/S 761 mmHg 47%
    11:00 +16°C° 0 mm 5 m/S 760 mmHg 46%
    12:00 +17°C° 0 mm 5 m/S 760 mmHg 45%
    13:00 +19°C° 0 mm 5 m/S 759 mmHg 44%
    14:00 +17°C° 0 mm 5 m/S 759 mmHg 47%
    15:00 +17°C° 0 mm 5 m/S 759 mmHg 50%
    16:00 +17°C° 0 mm 5 m/S 758 mmHg 53%
    17:00 +17°C° 0.1 mm 4 m/S 758 mmHg 59%
    18:00 +15°C° 0.1 mm 4 m/S 758 mmHg 65%
    19:00 +14°C° 0.1 mm 3 m/S 758 mmHg 71%
    20:00 +13°C° 0.1 mm 3 m/S 758 mmHg 74%
    21:00 +12°C° 0.1 mm 3 m/S 758 mmHg 78%
    22:00 +12°C° 0.1 mm 2 m/S 758 mmHg 81%
    23:00 +9°C° 0 mm 2 m/S 758 mmHg 83%

    Morgen, 30 Mai, Samstag

    Zeit Temperatur Niederschläge Wind Luftdruck Luftfeuchtigkeit
    00:00 +8°C° 0 mm 2 m/S 758 mmHg 85%
    01:00 +7°C° 0 mm 2 m/S 758 mmHg 87%
    02:00 +7°C° 0 mm 2 m/S 758 mmHg 88%
    03:00 +6°C° 0 mm 2 m/S 758 mmHg 89%
    04:00 +6°C° 0 mm 2 m/S 757 mmHg 90%
    05:00 +7°C° 0 mm 2 m/S 757 mmHg 83%
    06:00 +8°C° 0 mm 3 m/S 758 mmHg 76%
    07:00 +10°C° 0 mm 3 m/S 758 mmHg 69%
    08:00 +11°C° 0 mm 4 m/S 757 mmHg 63%
    09:00 +13°C° 0 mm 4 m/S 757 mmHg 57%
    10:00 +14°C° 0 mm 5 m/S 757 mmHg 52%
    11:00 +14°C° 0 mm 5 m/S 757 mmHg 51%
    12:00 +15°C° 0 mm 5 m/S 756 mmHg 50%
    13:00 +17°C° 0 mm 4 m/S 756 mmHg 50%
    14:00 +16°C° 0 mm 5 m/S 756 mmHg 50%
    15:00 +16°C° 0 mm 5 m/S 755 mmHg 51%
    16:00 +16°C° 0 mm 5 m/S 755 mmHg 52%
    17:00 +15°C° 0 mm 4 m/S 755 mmHg 57%
    18:00 +15°C° 0 mm 4 m/S 755 mmHg 62%
    19:00 +14°C° 0 mm 3 m/S 755 mmHg 66%
    20:00 +12°C° 0 mm 3 m/S 755 mmHg 71%
    21:00 +11°C° 0 mm 3 m/S 755 mmHg 77%
    22:00 +9°C° 0 mm 3 m/S 755 mmHg 82%
    23:00 +9°C° 0 mm 2 m/S 755 mmHg 85%

    übermorgen, 31 Mai, Sonntag

    Zeit Temperatur Niederschläge Wind Luftdruck Luftfeuchtigkeit
    00:00 +8°C° 0 mm 2 m/S 755 mmHg 87%
    01:00 +8°C° 0 mm 2 m/S 755 mmHg 90%
    02:00 +8°C° 0 mm 2 m/S 755 mmHg 91%
    03:00 +7°C° 0 mm 2 m/S 754 mmHg 92%
    04:00 +7°C° 0 mm 2 m/S 754 mmHg 93%
    05:00 +8°C° 0 mm 3 m/S 754 mmHg 89%
    06:00 +9°C° 0 mm 3 m/S 754 mmHg 85%
    07:00 +10°C° 0 mm 4 m/S 754 mmHg 81%
    08:00 +11°C° 0 mm 4 m/S 754 mmHg 77%
    09:00 +13°C° 0 mm 4 m/S 754 mmHg 73%
    10:00 +14°C° 0 mm 4 m/S 754 mmHg 69%
    11:00 +15°C° 0 mm 4 m/S 753 mmHg 66%
    12:00 +17°C° 0 mm 4 m/S 753 mmHg 63%
    13:00 +17°C° 0 mm 5 m/S 753 mmHg 60%
    14:00 +19°C° 0 mm 4 m/S 753 mmHg 60%
    15:00 +19°C° 0 mm 4 m/S 753 mmHg 61%
    16:00 +19°C° 0 mm 4 m/S 753 mmHg 61%
    17:00 +19°C° 0 mm 4 m/S 753 mmHg 65%
    18:00 +18°C° 0 mm 3 m/S 753 mmHg 68%
    19:00 +17°C° 0 mm 3 m/S 753 mmHg 72%
    20:00 +17°C° 0 mm 3 m/S 753 mmHg 74%
    21:00 +16°C° 0 mm 3 m/S 754 mmHg 77%
    22:00 +16°C° 0 mm 3 m/S 754 mmHg 80%
    23:00 +14°C° 0 mm 3 m/S 754 mmHg 81%

    1 Juni, Montag

    Zeit Temperatur Niederschläge Wind Luftdruck Luftfeuchtigkeit
    00:00 +15°C° 0 mm 2 m/S 754 mmHg 83%
    01:00 +15°C° 0 mm 2 m/S 754 mmHg 85%
    02:00 +15°C° 0 mm 2 m/S 754 mmHg 87%
    03:00 +14°C° 0 mm 2 m/S 754 mmHg 88%
    04:00 +14°C° 0 mm 2 m/S 754 mmHg 89%
    05:00 +14°C° 0 mm 3 m/S 754 mmHg 85%
    06:00 +16°C° 0 mm 3 m/S 755 mmHg 82%
    07:00 +16°C° 0 mm 3 m/S 755 mmHg 78%
    08:00 +18°C° 0 mm 4 m/S 755 mmHg 70%
    09:00 +20°C° 0 mm 4 m/S 755 mmHg 63%
    10:00 +21°C° 0 mm 4 m/S 755 mmHg 55%
    11:00 +22°C° 0 mm 5 m/S 755 mmHg 53%
    12:00 +22°C° 0 mm 5 m/S 755 mmHg 51%
    13:00 +23°C° 0 mm 5 m/S 755 mmHg 49%
    14:00 +23°C° 0.1 mm 5 m/S 754 mmHg 51%
    15:00 +22°C° 0.1 mm 5 m/S 754 mmHg 53%
    16:00 +22°C° 0.1 mm 5 m/S 754 mmHg 55%
    17:00 +21°C° 0 mm 4 m/S 754 mmHg 60%
    18:00 +20°C° 0 mm 3 m/S 754 mmHg 65%
    19:00 +19°C° 0 mm 3 m/S 754 mmHg 70%
    20:00 +18°C° 0 mm 3 m/S 754 mmHg 75%
    21:00 +16°C° 0 mm 3 m/S 754 mmHg 81%
    22:00 +15°C° 0 mm 2 m/S 754 mmHg 86%
    23:00 +14°C° 0 mm 2 m/S 754 mmHg 89%

    2 Juni, Dienstag

    Zeit Temperatur Niederschläge Wind Luftdruck Luftfeuchtigkeit
    00:00 +13°C° 0 mm 2 m/S 754 mmHg 91%
    01:00 +13°C° 0 mm 2 m/S 754 mmHg 94%
    02:00 +12°C° 0 mm 2 m/S 754 mmHg 95%
    03:00 +12°C° 0 mm 2 m/S 754 mmHg 95%
    04:00 +12°C° 0 mm 2 m/S 754 mmHg 96%
    05:00 +12°C° 0 mm 3 m/S 754 mmHg 90%
    06:00 +14°C° 0 mm 3 m/S 754 mmHg 84%
    07:00 +17°C° 0 mm 4 m/S 754 mmHg 78%
    08:00 +18°C° 0 mm 4 m/S 754 mmHg 71%
    09:00 +20°C° 0 mm 5 m/S 754 mmHg 64%
    10:00 +21°C° 0 mm 6 m/S 753 mmHg 58%
    11:00 +22°C° 0 mm 6 m/S 753 mmHg 55%
    12:00 +23°C° 0 mm 6 m/S 753 mmHg 53%
    13:00 +24°C° 0 mm 6 m/S 752 mmHg 51%
    14:00 +24°C° 0 mm 6 m/S 752 mmHg 51%
    15:00 +24°C° 0 mm 6 m/S 751 mmHg 51%
    16:00 +24°C° 0 mm 6 m/S 751 mmHg 52%
    17:00 +22°C° 0 mm 5 m/S 750 mmHg 57%
    18:00 +21°C° 0 mm 5 m/S 750 mmHg 62%
    19:00 +20°C° 0 mm 5 m/S 750 mmHg 67%
    20:00 +19°C° 0 mm 4 m/S 750 mmHg 71%
    21:00 +17°C° 0 mm 4 m/S 750 mmHg 74%
    22:00 +15°C° 0 mm 4 m/S 750 mmHg 77%
    23:00 +14°C° 0 mm 4 m/S 750 mmHg 79%

    3 Juni, Mittwoch

    Zeit Temperatur Niederschläge Wind Luftdruck Luftfeuchtigkeit
    00:00 +14°C° 0 mm 4 m/S 750 mmHg 80%
    01:00 +13°C° 0 mm 3 m/S 750 mmHg 81%
    02:00 +13°C° 0 mm 3 m/S 749 mmHg 82%
    03:00 +12°C° 0 mm 3 m/S 749 mmHg 83%
    04:00 +12°C° 0 mm 3 m/S 749 mmHg 83%
    05:00 +13°C° 0 mm 4 m/S 749 mmHg 79%
    06:00 +15°C° 0 mm 4 m/S 749 mmHg 74%
    07:00 +17°C° 0 mm 4 m/S 749 mmHg 70%
    08:00 +19°C° 0 mm 4 m/S 749 mmHg 64%
    09:00 +21°C° 0 mm 5 m/S 749 mmHg 58%
    10:00 +23°C° 0 mm 5 m/S 749 mmHg 52%
    11:00 +25°C° 0 mm 5 m/S 748 mmHg 50%
    12:00 +26°C° 0 mm 5 m/S 748 mmHg 47%
    13:00 +27°C° 0 mm 5 m/S 748 mmHg 45%
    14:00 +27°C° 0 mm 5 m/S 747 mmHg 45%
    15:00 +27°C° 0 mm 5 m/S 747 mmHg 46%
    16:00 +27°C° 0 mm 5 m/S 747 mmHg 47%
    17:00 +26°C° 0 mm 4 m/S 747 mmHg 53%
    18:00 +25°C° 0 mm 4 m/S 746 mmHg 59%
    19:00 +22°C° 0 mm 3 m/S 746 mmHg 65%
    20:00 +21°C° 0 mm 3 m/S 746 mmHg 71%
    21:00 +19°C° 0 mm 3 m/S 747 mmHg 76%
    22:00 +18°C° 0 mm 3 m/S 747 mmHg 82%
    23:00 +17°C° 0 mm 3 m/S 747 mmHg 83%
    Mehr zeigen